This is the latest recevied weather packets stored in our database for station/object 9W3FAB-1. If no packets are shown the sender has not sent any weather packets the latest 10 day(s).
| Time | Temp. | Humidity | Pressure | Rain* | Wind** | Luminosity | Snow |
|---|---|---|---|---|---|---|---|
| 1778041906 | 31.11° C | 100% | 1006.4 hPa | - | - | - | - |
| 1778041005 | 31.11° C | 100% | 1006.7 hPa | - | - | - | - |
| 1778040104 | 30.56° C | 100% | 1007 hPa | - | - | - | - |
| 1778039203 | 30.56° C | 100% | 1007.1 hPa | - | - | - | - |
| 1778038303 | 31.11° C | 100% | 1007.3 hPa | - | - | - | - |
| 1778037402 | 31.11° C | 100% | 1007.4 hPa | - | - | - | - |
| 1778036500 | 30.56° C | 100% | 1007.7 hPa | - | - | - | - |
| 1778035599 | 30° C | 100% | 1007.9 hPa | - | - | - | - |
| 1778034699 | 29.44° C | 100% | 1008 hPa | - | - | - | - |
| 1778033798 | 29.44° C | 100% | 1008.1 hPa | - | - | - | - |
| 1778032897 | 28.89° C | 100% | 1008.2 hPa | - | - | - | - |
| 1778031996 | 28.89° C | 100% | 1008.2 hPa | - | - | - | - |
| 1778031095 | 28.33° C | 100% | 1008.3 hPa | - | - | - | - |
| 1778030194 | 28.33° C | 100% | 1008.2 hPa | - | - | - | - |
| 1778029293 | 28.33° C | 100% | 1008.3 hPa | - | - | - | - |
| 1778028392 | 27.78° C | 100% | 1008.2 hPa | - | - | - | - |
| 1778027492 | 27.22° C | 100% | 1008.1 hPa | - | - | - | - |
| 1778026591 | 27.22° C | 100% | 1008 hPa | - | - | - | - |
| 1778025690 | 26.67° C | 100% | 1007.8 hPa | - | - | - | - |
| 1778024873 | 27.22° C | 100% | 1007.7 hPa | - | - | - | - |
| 1778023972 | 26.67° C | 100% | 1007.6 hPa | - | - | - | - |
| 1778023072 | 27.22° C | 100% | 1007.1 hPa | - | - | - | - |
| 1778022171 | 26.67° C | 100% | 1007.2 hPa | - | - | - | - |
| 1778021270 | 26.67° C | 100% | 1007 hPa | - | - | - | - |
| 1778020369 | 26.11° C | 100% | 1006.9 hPa | - | - | - | - |
* Rain since midnight (hover to see other rain measurements)
** Current wind speed in m/s (hover to see current wind gust speed)